Location: Wien
(48.2082°N, 16.3738°E)
Time: 17:05:08
(UTC+02:00)

KAITUO 1B - Visible Passes

Search period start: 19 October 2019 00:00
Search period end: 28 October 2019 23:00
Orbit: 495 x 518 km, 97.5° (Epoch: 19 October)

Date Brightness Start Highest point End Pass type
(mag) Time Alt. Az. Time Alt. Az. Time Alt. Az.
19 Oct ? 06:22:06 10° NE 06:24:28 16° E 06:26:49 10° SE visible
19 Oct ? 18:37:05 10° S 18:40:42 56° W 18:44:19 10° NNW visible
20 Oct ? 06:05:59 10° ENE 06:06:36 10° E 06:07:14 10° E visible
21 Oct ? 19:37:52 10° WSW 19:39:34 13° W 19:41:14 10° WNW visible
22 Oct ? 19:18:59 10° SW 19:21:42 19° W 19:24:26 10° NW visible
23 Oct ? 06:44:32 10° NE 06:47:46 28° E 06:50:59 10° SSE visible
23 Oct ? 19:00:39 10° SSW 19:03:54 30° W 19:07:10 10° NNW visible
24 Oct ? 06:27:19 10° NE 06:29:57 18° E 06:32:35 10° SE visible
24 Oct ? 18:42:35 10° S 18:46:08 48° W 18:49:43 10° NNW visible
25 Oct ? 06:10:37 10° ENE 06:12:05 12° E 06:13:35 10° ESE visible
25 Oct ? 18:24:45 10° S 18:28:25 79° WSW 18:32:06 10° NNW visible
26 Oct ? 19:43:59 10° WSW 19:45:02 11° W 19:46:05 10° WNW visible
27 Oct ? 18:24:42 10° SW 18:27:10 17° W 18:29:38 10° NW visible
28 Oct ? 05:49:50 10° NNE 05:53:12 32° E 05:56:33 10° SSE visible
28 Oct ? 18:06:14 10° SSW 18:09:20 26° W 18:12:28 10° NW visible
